Погода в Дальнереченске

Погода в Дальнереченске : погода сейчас, прогноз погоды и архив. Всё, что Вы хотите узнать о погоде в Дальнереченске!

Хотите узнать прогноз погоды в Дальнереченске? Тогда Вам сюда: Погода в Дальнереченске

Поиск расширенной информации на нашем сайте:

Другие новости

Новости СМИ2

Главная страница сайта

Новости сайта

03.07.2017

Напоминаем, что на нашем специализированном сайте Метеоцентр.Азия вы можете получить высокодетализированные автоматические прогнозы погоды по пунктам России, СНГ и мира в авиационном формате (включающие направление и скорость ветра, видимость, явления погоды, количество и форму облачности, нижнюю и верхнюю границу облачности).


Погода в Дальнереченске - сегодня

Время (UTC), дата Ветер
(°,м/с) 
Видим.   Явления Облачность Т
(°С)
Тd
(°С)
f(%) Тe
(°С)
Pmin
(гПа)
dP
(гПа)
Po
(мм)
O2
(г/м3)
Тmin Tmax R s Состояние
почвы
21 17.08.17 тихо ()   0500 м  туман  ясно 
+15.2 +14.6 96 +23  1014.1  0.6  752  284  +14.7        сухая 
00 18.08.17 тихо ()   20000 м    5/5 300 м 
[St]
+21 +17.9 82 +35  1014.6  0.7  752  277           
03 18.08.17 340 (С) 20000 м    4/4 600 м 
[Cu hum]
+25.1 +16.3 58 +36  1013.8  -0.6  752  274           
06 18.08.17 340 (С) н/о    н/о 
+26.6 +16.9 55 +39  1012.8  -1  751  272           
09 18.08.17 310 (СЗ) 20000 м    ясно 
+25.8 +17.7 61 +39  1012.5  -0.4  751  272    +27.3       
12 18.08.17 300 (СЗ) 10 км    ясно 
+20.4 +16.4 78 +32  1013.5  0.8  751  278           
15 18.08.17 280 (З) 10 км    ясно 
+18.4 +17.2 93 +33  1014.1  0.5  752  280           
18 18.08.17 тихо ()   10 км    ясно 
+16.6 +15.9 96 +27  1014  -0.1  752  282           
21 18.08.17 100 (В) 20000 м    ясно 
+16.4 +15.8 96 +28  1015  752  283  +15.8        сухая 
00 19.08.17 210 (ЮЗ) 20000 м    ясно 
+23.4 +19 76 +40  1015  0.2  752  275  +15.6         
03 19.08.17 210 (ЮЗ) 20000 м    4/4 600 м 
[Cu hum]
+26.7 +18.6 61 +42  1014.2  -0.6  752  272           
06 19.08.17 250 (З) 20000 м    3/3 600 м 
[Cu hum]
+28.2 +18.1 54 +43  1012.5  -1.7  751  270           
09 19.08.17 240 (ЮЗ) 20000 м    ясно 
+27.2 +18.3 58 +42  1011.9  -0.6  750  271    +28.5       
12 19.08.17 260 (З) 10 км    ясно 
+20.4 +19.1 92 +37  1013.3  1.1  751  277           
15 19.08.17 220 (ЮЗ) 10 км    ясно 
+18.5 +17.7 95 +34  1013.5  0.2  751  279           
18 19.08.17 тихо ()   10 км    ясно 
+17 +16.5 97 +28  1013.2  -0.4  751  281           
21 19.08.17 тихо ()   20000 м    ясно 
+17.5 +17 97 +30  1013.8  0.6  751  281  +15.8        сухая 
00 20.08.17 210 (ЮЗ) 20000 м    ясно 
+23.4 +17.7 70 +37  1013.8  0.2  752  275           
03 20.08.17 200 (Ю) 20000 м    ясно 
+27.8 +17.1 52 +40  1012.6  -1  751  271           
06 20.08.17 230 (ЮЗ) 20000 м    ясно 
+29.3 +14.2 40 +37  1011.3  -1  750  270           
09 20.08.17 270 (З) 20000 м    ясно 
+28.3 +17.2 51 +41  1010.7  -0.7  749  270    +29.3       
12 20.08.17 тихо ()   10 км    ясно 
+20.1 +16.6 80 +32  1011.1  0.1  749  278           
15 20.08.17 тихо ()   10 км    ясно 
+18.3 +16.6 90 +30  1011.3  0.2  750  279           
18 20.08.17 210 (ЮЗ) 10 км    ясно 
+17.7 +15.9 89 +29  1011.1  -0.3  749  280           
21 20.08.17 090 (В) 20000 м    ясно 
+16.4 +14.7 90 +25  1011.5  0.3  750  282  +15.8        сухая 
Время (UTC), дата Ветер
(°,м/с) 
Видим.   Явления Облачность Т
(°С)
Тd
(°С)
f(%) Тe
(°С)
Pmin
(гПа)
dP
(гПа)
Po
(мм)
O2
(г/м3)
Тmin Tmax R s Состояние
почвы

Для получения пояснительной информации подведите курсор к названию столбца.

ПОГОДА в Дальнереченске - архив

Всё, что Вы хотите узнать о погоде в Дальнереченске - удобно и подробно!

Выберите нужную дату (начиная с 1 января 2015* года) и нажмите кнопку "Найти".
Будут отображены архивные сводки погоды по пункту Дальнереченск, начиная с указанной даты.


Отображать данные в формате CSV (для использования в таблицах Excel)


Внимание! Наш архив погоды предназначен исключительно для личного некоммерческого использования в познавательных целях. Если Вам необходимы официальные справки о состоянии погоды (для производственных, юридических, коммерческих и т.п. целей), обращайтесь в органы Росгидромета.

*Примечание: данная дата относится к архиву по метеостанциям СССР (Россия, СНГ, Балтия).
Архив по метеостанциям Зарубежной Европы и Азии (кроме Китая) хранится 10 дней, по другим регионам земного шара (Китай, Африка, Америка, Австралия, Океания) - 1 день.

Дальнереченск - район местоположения метеостанции


Название, широта, долгота, высота метеостанции:
Дальнереченск 45.9°ш. 133.7°д. 101 м над ур. моря [Российская Федерация]

Дополнительная информация

В oтличие oт бoльшинства пoгoдных сайтoв мы публикуем пoдрoбную метеoинфoрмацию в детальнoм прoфессиoнальнoм фoрмате.

Характеристики температуры и влажнoсти вoздуха измеряются на высoте 2 м в тени вдали oт зданий и деревьев.
Скoрoсть ветра измеряется на высoте 10 м (на урoвне рoста челoвека скoрoсть ветра ниже в 1.5-2 раза). Если метеoстанция нахoдится в гoрoде или в лесу, тo скoрoсть ветра занижена на 2-4 м/с пo сравнению с oткрытым местoм. Скoрoсть ветра над акватoриями крупных рек и oзёр, а также на вершинах хoлмoв на 2-5 м/с выше, чем в oбычных услoвиях.
Атмoсфернoе давление в разных тoчках местнoсти мoжет значительнo oтличаться oт давления на метеoстанции, в зависимoсти oт услoвий рельефа (при пoдъёме на 10 м давление пoнижается примернo на 1 мм рт.ст.).